Location: Helion Bumpstead
(52.0500°N, 0.4000°E)
Time: 08:27:25
(UTC+00:00)

Cosmos 332 Rocket - Pass Details

Date: 15 November 2025
Orbit: 673 x 692 km, 74.0° (Epoch: 14 December)

Event Time Altitude Azimuth Distance (km) Brightness Sun altitude
Exits shadow 06:15:30 - 326° (NW) 2,475 6.2 -9.7°
Reaches altitude 10° 06:16:24 10° 323° (NW) 2,138 5.8 -9.6°
Maximum altitude 06:20:53 40° 255° (WSW) 1,006 4.3 -8.9°
Drops below altitude 10° 06:25:18 10° 186° (S) 2,111 6.5 -8.3°
Sets 06:27:41 0° 179° (S) 3,019 7.4 -7.9°
